#timestamp,LO_Frequency,Hit,StdDev 
1458010815.9,286046996.4,N
1458010835.7,286046995.1,N
1458010855.6,286046995.3,N
1458010875.4,286046997.1,N
1458010895.2,286046999.5,N
1458010915.1,286046995.9,N
1458010916.0,286046995.9,N
1458010935.8,286046996.0,N
1458010955.6,286046996.3,N
1458010975.4,286046992.1,N
1458010995.3,286046993.9,N
1458011015.1,286046992.1,N
1458011035.8,286046990.1,N
1458011055.7,286046989.5,N
1458011075.5,286046992.1,N
1458011095.3,286046990.1,N
1458011115.2,286046989.0,N
1458011135.9,286046989.6,N
1458011155.7,286046988.5,N
1458011175.6,286046992.0,N
1458011195.4,286046989.2,N
1458011215.2,286046990.0,N
1458011235.1,286046986.3,Y
1458011236.0,286046986.3,P
1458011255.8,286046991.4,N
1458011275.6,286046991.2,N
1458011295.5,286046987.3,Y
1458011315.3,286046999.1,P
1458011335.1,286046998.8,N
1458011355.9,286046998.3,N
1458011375.7,286046999.2,N
1458011395.5,286046998.4,N
1458011415.4,286046999.2,N
1458011435.2,286046997.0,N
1458011455.0,286046999.3,N
1458011455.9,286046999.3,N
1458011475.8,286046999.5,N
1458011495.6,286046996.9,N
1458011515.4,286046996.7,N
1458011535.2,286046995.7,N
1458011555.1,286046996.8,N
1458011556.0,286046996.8,N
1458011575.8,286046996.1,N
1458011595.6,286046998.0,N
1458011615.5,286046993.8,Y
1458011635.3,286046995.6,P
1458011655.1,286046996.1,P
1458011675.9,286046995.4,P
1458011695.7,286046993.6,Y
1458011715.5,286046997.9,P
1458011735.4,286046998.3,N
1458011755.2,286047001.1,N
1458011775.0,286046998.5,N
1458011775.9,286046998.5,N
1458011795.8,286047000.4,N
1458011815.6,286047000.5,N
1458011835.4,286047001.0,N
1458011855.3,286046998.8,N
1458011875.1,286047000.5,N
1458011876.0,286047000.5,N
1458011895.8,286046998.3,N
1458011915.7,286046998.8,N
1458011935.5,286046996.6,N
1458011955.3,286046999.2,N
1458011975.2,286046999.3,N
1458011995.9,286047000.2,N
1458012015.7,286047005.8,Y
1458012035.6,286047005.1,P
1458012055.4,286047007.4,N
1458012075.2,286047008.3,N
1458012095.1,286047005.2,N
1458012096.0,286047005.2,N
1458012115.8,286047005.1,N
1458012135.6,286047000.2,N
1458012155.4,286047000.9,N
1458012175.3,286047001.4,N
1458012195.1,286047004.0,N
1458012215.8,286047007.0,N
1458012235.7,286047004.7,N
1458012255.5,286047006.1,N
1458012275.3,286047007.5,N
1458012295.2,286047003.0,N
1458012315.9,286047003.5,N
1458012335.7,286047000.1,N
1458012355.6,286047000.2,N
1458012375.4,286047001.7,N
1458012395.2,286047003.6,N
1458012415.1,286047002.6,N
1458012416.0,286047002.6,N
1458012435.8,286047000.3,N
1458012455.6,286046998.4,N
1458012475.4,286047000.0,N
1458012495.3,286046998.7,N
1458012515.1,286047000.0,N
1458012535.8,286047002.7,N
1458012555.7,286047001.6,N
1458012575.5,286047001.7,N
1458012595.3,286047004.1,N
1458012615.2,286047007.2,N
1458012635.9,286047003.3,N
1458012655.7,286047002.1,N
1458012675.6,286047003.3,N
1458012695.4,286047005.6,N
1458012715.2,286047008.2,Y
1458012735.1,286047006.3,P
1458012736.0,286047006.3,P
1458012755.8,286047008.0,P
1458012775.6,286047006.1,Y
1458012795.5,286047000.9,P
1458012815.3,286047001.1,N
1458012835.1,286047003.9,N
1458012855.9,286047002.0,N
1458012875.7,286046999.7,N
1458012895.5,286047006.0,N
1458012915.3,286047000.2,N
1458012935.2,286047002.0,N
1458012955.0,286047001.3,N
1458012955.9,286047001.3,N
1458012975.7,286047004.5,N
1458012995.6,286047003.8,N
1458013015.4,286047005.9,N
1458013035.2,286047005.0,N
1458013055.1,286047007.5,Y
1458013056.0,286047007.5,P
1458013075.8,286047002.4,N
1458013095.6,286047002.3,N
1458013115.5,286047002.7,N
1458013135.3,286047001.2,N
1458013155.1,286046999.5,N
1458013175.9,286047001.2,N
1458013195.7,286046999.3,N
1458013215.5,286046995.0,N
1458013235.4,286046997.7,N
1458013255.2,286046994.9,N
1458013275.0,286046997.1,N
1458013275.9,286046997.1,N
1458013295.8,286047003.4,N
1458013315.6,286047002.9,N
1458013335.4,286047007.1,N
1458013355.2,286047006.7,N
1458013375.1,286047008.8,N
1458013376.0,286047008.8,N
1458013395.8,286047009.3,N
1458013415.7,286047014.0,Y
1458013435.5,286047011.1,P
1458013455.3,286047012.9,N
1458013475.1,286047016.7,P
1458013495.9,286047016.4,Y
1458013515.7,286047006.9,P
1458013535.5,286047013.4,P
1458013555.4,286047012.8,P
1458013575.2,286047014.0,Y
1458013595.0,286047002.1,P
1458013596.0,286047002.1,N
1458013615.8,286047003.9,N
1458013635.6,286047001.9,N
1458013655.4,286046998.4,N
1458013675.3,286046998.8,N
1458013695.1,286047000.4,N
1458013715.8,286047001.4,N
1458013735.7,286047001.0,N
1458013755.5,286047002.1,N
1458013775.3,286047002.2,N
1458013795.2,286047002.8,N
1458013815.9,286047000.7,N
1458013835.7,286046999.3,N
1458013855.6,286046993.7,N
1458013875.4,286046994.0,N
1458013895.2,286046995.2,N
1458013915.0,286046996.1,N
1458013916.0,286046996.1,N
1458013935.8,286046994.2,N
1458013955.6,286046996.4,N
1458013975.4,286046996.4,N
1458013995.3,286046994.5,N
1458014015.1,286046991.7,N
1458014035.8,286046994.2,N
1458014055.7,286046996.4,N
1458014075.5,286046994.2,N
1458014095.3,286046993.1,N
1458014115.2,286046992.0,N
1458014135.9,286046991.8,N
1458014155.7,286046993.4,N
1458014175.5,286046999.2,N
1458014195.4,286046997.1,N
1458014215.2,286047000.4,N
1458014235.0,286046999.4,N
1458014235.9,286046999.4,N
1458014255.8,286046993.8,N
1458014275.6,286046992.9,N
1458014295.4,286046993.9,N
1458014315.3,286046993.3,N
1458014335.1,286046992.1,N
1458014355.8,286046993.3,N
1458014375.7,286046997.2,N
1458014395.5,286046993.8,N
